Edinburg, TX

7:57 PM CDT on July 24, 2017 (GMT -0500)
Edinburg

Weather History for KEBG - February, 2012

Change the Weather History Date:

Wednesday, February 8, 2012

  Actual Average (KMFE) Record (KMFE)
Temperature  
Mean Temperature 58 °F -  
Max Temperature 60 °F 71 °F 94 °F (2017)
Min Temperature 55 °F 52 °F 30 °F (1926)
Degree Days  
Heating Degree Days 7    
Growing Degree Days 8 (Base 50)    
Moisture  
Dew Point 53 °F    
Average Humidity 84    
Maximum Humidity 92    
Minimum Humidity 69    
Precipitation  
Precipitation 0.69 in - - ()
Sea Level Pressure  
Sea Level Pressure 30.31 in    
Wind  
Wind Speed 9 mph (NNE)    
Max Wind Speed 17 mph    
Max Gust Speed 22 mph    
Visibility 7 miles    
Events Rain , Thunderstorm    
Averages and records for this station are not official NWS values.
T = Trace of Precipitation, MM = Missing Value Source: NWS Daily Summary

Daily Weather History Graph

Daily Weather History Graph

Search for Another Location

Airport or City:

Trip Planner

Search our weather history database for the weather conditions in past years. The results will help you decide how hot, cold, wet, or windy it might be!

Date:

Astronomy

Feb. 08, 2012 Rise Set
Actual Time 7:13 AM CST 6:20 PM CST
Civil Twilight 6:49 AM CST 6:44 PM CST
Nautical Twilight 6:22 AM CST 7:11 PM CST
Astronomical Twilight 5:55 AM CST 7:38 PM CST
Moon 7:27 PM CST (2/8) 7:27 AM CST (2/8)
Length of Visible Light 11h 54m
Length of Day
11h 06m
Full, 99% of the Moon is Illuminated
Feb 8
Full
Feb 14
Last Quarter
Feb 21
New
Feb 29
First Quarter
Mar 8
Full

Hourly Weather History & Observations

Time (CST) Temp. Dew Point Humidity Pressure Visibility Wind Dir Wind Speed Gust Speed Precip Events Conditions
12:15 AM 60.1 °F 56.5 °F 88% 30.27 in 4.0 mi Calm Calm - 0.09 in Rain Rain
12:35 AM 59.4 °F 56.3 °F 90% 30.26 in 7.0 mi NNE 10.4 mph - 0.13 in Rain Rain
12:55 AM 58.8 °F 55.6 °F 89% 30.27 in 7.0 mi NNE 10.4 mph - 0.18 in Rain , Thunderstorm Thunderstorms and Rain
1:15 AM 58.1 °F 54.9 °F 89% 30.26 in 7.0 mi North 8.1 mph - 0.09 in Rain Heavy Rain
1:35 AM 58.1 °F 55.2 °F 90% 30.27 in 7.0 mi North 8.1 mph - 0.13 in Rain Light Rain
1:55 AM 58.3 °F 55.2 °F 90% 30.26 in 10.0 mi NNE 6.9 mph - 0.14 in Rain Rain
2:15 AM 58.3 °F 55.4 °F 90% 30.24 in 10.0 mi NNE 12.7 mph 17.3 mph 0.02 in Rain Light Rain
2:35 AM 58.3 °F 55.4 °F 90% 30.25 in 7.0 mi North 11.5 mph - 0.06 in Rain Light Rain
2:55 AM 58.3 °F 55.6 °F 91% 30.26 in 10.0 mi North 10.4 mph - 0.07 in Rain Light Rain
3:15 AM 58.3 °F 55.6 °F 91% 30.26 in 7.0 mi North 10.4 mph - 0.01 in Rain Light Rain
3:35 AM 58.3 °F 55.6 °F 91% 30.25 in 7.0 mi North 12.7 mph - 0.03 in Rain Rain
3:55 AM 58.1 °F 55.6 °F 91% 30.26 in 7.0 mi North 10.4 mph - 0.04 in Rain Light Rain
4:15 AM 58.3 °F 55.8 °F 91% 30.25 in 7.0 mi North 13.8 mph - 0.01 in Rain Light Rain
4:35 AM 58.3 °F 55.8 °F 91% 30.26 in 5.0 mi North 12.7 mph 19.6 mph 0.03 in Rain Light Rain
4:55 AM 58.1 °F 55.6 °F 91% 30.26 in 7.0 mi North 11.5 mph - 0.05 in Rain Rain
5:35 AM 58.1 °F 55.8 °F 92% 30.28 in 5.0 mi North 10.4 mph - 0.04 in Rain Light Rain
5:55 AM 58.1 °F 55.8 °F 92% 30.27 in 5.0 mi North 11.5 mph - 0.06 in Rain Light Rain
6:15 AM 58.1 °F 55.8 °F 92% 30.28 in 5.0 mi North 11.5 mph - 0.02 in Rain Light Rain
6:35 AM 58.1 °F 55.8 °F 92% 30.30 in 5.0 mi North 10.4 mph - 0.04 in Rain Light Rain
6:55 AM 58.1 °F 55.8 °F 92% 30.31 in 5.0 mi North 10.4 mph - 0.04 in Rain Light Rain
7:15 AM 57.9 °F 55.4 °F 91% 30.32 in 7.0 mi North 10.4 mph - 0.01 in Rain Light Rain
7:35 AM 57.6 °F 55.0 °F 91% 30.32 in 5.0 mi NNE 12.7 mph - 0.03 in Rain Light Rain
7:55 AM 57.4 °F 54.7 °F 91% 30.33 in 5.0 mi North 11.5 mph - 0.05 in Rain Light Rain
8:15 AM 57.2 °F 54.5 °F 91% 30.33 in 5.0 mi North 11.5 mph - N/A   Light Drizzle
8:35 AM 57.4 °F 54.5 °F 90% 30.34 in 3.0 mi North 10.4 mph - N/A   Overcast
8:55 AM 57.2 °F 54.5 °F 91% 30.34 in 5.0 mi NNE 11.5 mph - N/A   Overcast
9:15 AM 57.6 °F 54.3 °F 89% 30.35 in 4.0 mi North 10.4 mph 18.4 mph N/A   Overcast
9:35 AM 57.7 °F 54.3 °F 88% 30.37 in 5.0 mi NNE 10.4 mph - N/A   Overcast
9:55 AM 57.7 °F 53.8 °F 87% 30.38 in 7.0 mi NNE 9.2 mph - 0.01 in Rain Light Rain
10:15 AM 57.4 °F 53.8 °F 88% 30.38 in 7.0 mi NNE 10.4 mph - 0.01 in Rain Light Rain
10:35 AM 57.6 °F 54.0 °F 88% 30.38 in 7.0 mi NNE 10.4 mph - 0.02 in Rain Light Rain
10:55 AM 57.4 °F 53.8 °F 88% 30.38 in 7.0 mi NNE 10.4 mph - 0.03 in Rain Light Rain
11:15 AM 57.2 °F 53.8 °F 88% 30.38 in 10.0 mi NNE 13.8 mph 20.7 mph N/A Rain Light Rain
11:35 AM 56.8 °F 53.2 °F 88% 30.37 in 10.0 mi North 16.1 mph 20.7 mph N/A   Light Drizzle
11:55 AM 56.8 °F 52.9 °F 87% 30.36 in 10.0 mi North 15.0 mph 19.6 mph N/A   Light Drizzle
12:15 PM 57.0 °F 52.9 °F 86% 30.35 in 10.0 mi North 12.7 mph 20.7 mph 0.01 in Rain Light Rain
12:35 PM 57.4 °F 53.1 °F 85% 30.34 in 10.0 mi North 17.3 mph - 0.02 in Rain Rain
12:55 PM 57.6 °F 53.1 °F 85% 30.33 in 7.0 mi NNE 11.5 mph 20.7 mph 0.02 in   Overcast
1:15 PM 58.1 °F 53.1 °F 83% 30.32 in 5.0 mi NNE 15.0 mph 21.9 mph N/A   Haze
1:55 PM 59.4 °F 51.8 °F 76% 30.31 in 7.0 mi NNE 13.8 mph 20.7 mph N/A   Scattered Clouds
2:15 PM 59.7 °F 50.9 °F 73% 30.30 in 5.0 mi NNE 12.7 mph - N/A   Haze
2:35 PM 60.1 °F 51.3 °F 73% 30.30 in 7.0 mi North 10.4 mph - N/A   Mostly Cloudy
2:55 PM 59.9 °F 51.6 °F 74% 30.30 in 5.0 mi North 11.5 mph - N/A   Haze
3:15 PM 60.1 °F 51.1 °F 72% 30.29 in 7.0 mi North 11.5 mph - N/A   Mostly Cloudy
3:35 PM 60.1 °F 51.1 °F 72% 30.29 in 5.0 mi North 10.4 mph - N/A   Haze
3:55 PM 59.9 °F 50.7 °F 72% 30.30 in 5.0 mi North 10.4 mph - N/A   Haze
4:15 PM 59.5 °F 50.4 °F 72% 30.29 in 7.0 mi North 9.2 mph - N/A   Overcast
4:35 PM 59.5 °F 49.8 °F 70% 30.29 in 5.0 mi North 8.1 mph - N/A   Haze
4:55 PM 59.5 °F 49.8 °F 70% 30.29 in 5.0 mi North 10.4 mph - N/A   Haze
5:15 PM 59.9 °F 49.6 °F 69% 30.29 in 7.0 mi NNE 6.9 mph - N/A   Scattered Clouds
5:35 PM 59.7 °F 49.6 °F 69% 30.28 in 7.0 mi NNE 8.1 mph - N/A   Scattered Clouds
5:55 PM 59.4 °F 49.3 °F 69% 30.28 in 7.0 mi NNE 6.9 mph - N/A   Scattered Clouds
6:15 PM 59.2 °F 49.3 °F 70% 30.29 in 5.0 mi NE 5.8 mph - N/A   Haze
6:35 PM 58.8 °F 49.5 °F 71% 30.30 in 7.0 mi Calm Calm - N/A   Mostly Cloudy
6:55 PM 58.5 °F 50.4 °F 74% 30.30 in 7.0 mi ENE 3.5 mph - N/A   Mostly Cloudy
7:15 PM 57.7 °F 50.9 °F 78% 30.30 in 7.0 mi Calm Calm - N/A   Scattered Clouds
7:35 PM 57.2 °F 51.4 °F 81% 30.31 in 7.0 mi Calm Calm - N/A   Mostly Cloudy
7:55 PM 57.0 °F 51.6 °F 82% 30.31 in 7.0 mi Calm Calm - N/A   Scattered Clouds
8:15 PM 57.0 °F 51.3 °F 81% 30.31 in 7.0 mi North 3.5 mph - N/A   Clear
8:35 PM 56.5 °F 51.4 °F 83% 30.31 in 7.0 mi North 5.8 mph - N/A   Clear
8:55 PM 55.6 °F 50.9 °F 84% 30.32 in 7.0 mi NW 3.5 mph - N/A   Clear
9:15 PM 55.6 °F 50.7 °F 84% 30.32 in 7.0 mi NNW 4.6 mph - N/A   Mostly Cloudy
9:35 PM 55.4 °F 50.9 °F 85% 30.32 in 7.0 mi NW 4.6 mph - N/A   Scattered Clouds
10:15 PM 54.9 °F 50.2 °F 84% 30.32 in 7.0 mi NW 4.6 mph - N/A   Clear
10:55 PM 54.3 °F 50.4 °F 86% 30.33 in 5.0 mi NW 6.9 mph - N/A   Clear
11:35 PM 53.6 °F 49.3 °F 85% 30.31 in 7.0 mi NNW 5.8 mph - N/A   Scattered Clouds
11:55 PM 53.6 °F 49.3 °F 85% 30.31 in 7.0 mi NW 4.6 mph - N/A   Mostly Cloudy